THORAD AGENA D DEB, 4659

Orbit data source: Space-Track

THORAD AGENA D DEB, 4659 is space debris in SSO originally from a launch on Wed, 08 Apr 1970 UTC launched from the Air Force Western Test Range (AFWTR). Debris objects in space refer to the collection of defunct objects orbiting the Earth. Examples of debris include non-operational satellites, rocket bodies, and fragments generated from explosions, collisions, or faulty payload assembly.

Loading next visibility...
Identifier
4659, 1970-025AT
Orbit
SSO
Country
Flag of USUS
Related business
Manufacturer
Unknown
Mission
Spacecraft
Bus & Motor
Unknown
Mass
Unknown
Launch date (UTC)
1970-04-08 (56 years ago)
Launch vehicle
Unknown
Launch site
Air Force Western Test Range (AFWTR)
Object type
Payload
Rocket body
Debris
Shape & HBR
Unknown shape, 0.1 m
Radar Cross Section
Medium (>0.1 m² and <1 m²)

Expand to show TLE details & history
Last TLE update: 1 day ago

TLE from 1 day ago
0 THORAD AGENA D DEB
1 04659U 70025AT  26256.34930922  .00000963  00000-0  76529-3 0  9991
2 04659 100.0970  27.4470 0010264  37.7056 322.4819 13.94124152820953
Epoch: 2026-09-13T08:23Z
TLE epoch observation values (Epoch: 2026-09-13T08:23:00.316Z)
Latitude
-0.00004°
Longitude
-90.64954°
Altitude
911.11 km
Speed
7.399 km/s
True Right ascension
01h 49m 47s
True Declination
0° 00' 00"
Sunlit
Object was in full shadow at epoch
Visualization orbit readout
Latitude
Unknown
Longitude
Unknown
Altitude
Unknown
Speed
Unknown
Apparent Right ascension
Unknown
Apparent Declination
Unknown
Sunlit
N/A
Visualization observer readout
Local Sidereal Time
01:56:41
Azimuth
Unknown
Elevation
Unknown
Doppler factor
Unknown
Orbital elements
Apogee altitude
918.96 km
Perigee altitude
903.996 km
Semi-major axis
7,289.615 km
Eccentricity
0.00103
Inclination
100.097°
RAAN
27.447°
Arg. of periapsis
37.7056°
True anomaly
322.4102°
Mean anomaly
322.4819°
Eccentric anomaly
322.44606°
Mean motion
3.48728 °/min
Orbital period
103.23 mins
BSTAR
0.00076529
Loading maneuver chart data...
Computing Atmospheric mass density...

Documentation

Showing up to 5 results
|